TimeCST,TemperatureF,Dew PointF,Humidity,Sea Level PressureIn,VisibilityMPH,Wind Direction,Wind SpeedMPH,Gust SpeedMPH,PrecipitationIn,Events,Conditions,WindDirDegrees,DateUTC
12:53 AM,64.0,50.0,60,30.19,10.0,SSW,11.5,-,N/A,,Overcast,200,2012-12-03 06:53:00
1:53 AM,63.0,50.0,63,30.20,10.0,SSW,10.4,-,N/A,,Overcast,200,2012-12-03 07:53:00
2:53 AM,62.1,50.0,65,30.19,10.0,South,11.5,-,N/A,,Overcast,190,2012-12-03 08:53:00
3:53 AM,61.0,50.0,67,30.20,10.0,South,10.4,-,N/A,,Scattered Clouds,190,2012-12-03 09:53:00
4:53 AM,60.1,48.9,67,30.21,10.0,South,6.9,-,N/A,,Scattered Clouds,190,2012-12-03 10:53:00
5:53 AM,59.0,48.9,69,30.22,10.0,South,5.8,-,N/A,,Mostly Cloudy,170,2012-12-03 11:53:00
6:53 AM,57.9,50.0,75,30.22,10.0,SSE,6.9,-,N/A,,Mostly Cloudy,160,2012-12-03 12:53:00
7:53 AM,60.1,50.0,69,30.23,10.0,South,4.6,-,N/A,,Scattered Clouds,180,2012-12-03 13:53:00
8:53 AM,64.9,52.0,63,30.24,10.0,SSW,6.9,-,N/A,,Mostly Cloudy,200,2012-12-03 14:53:00
9:53 AM,68.0,54.0,61,30.23,10.0,SSW,12.7,16.1,N/A,,Mostly Cloudy,200,2012-12-03 15:53:00
10:53 AM,70.0,55.0,59,30.21,10.0,SW,9.2,-,N/A,,Overcast,220,2012-12-03 16:53:00
11:53 AM,73.0,55.0,53,30.18,10.0,SW,10.4,20.7,N/A,,Mostly Cloudy,220,2012-12-03 17:53:00
12:53 PM,73.9,53.1,48,30.16,10.0,SSW,12.7,20.7,N/A,,Mostly Cloudy,200,2012-12-03 18:53:00
1:53 PM,73.9,52.0,46,30.14,10.0,SSW,12.7,-,N/A,,Mostly Cloudy,200,2012-12-03 19:53:00
2:53 PM,71.1,51.1,49,30.14,10.0,South,15.0,-,N/A,,Scattered Clouds,190,2012-12-03 20:53:00
3:53 PM,69.1,50.0,51,30.15,10.0,SSW,11.5,-,N/A,,Scattered Clouds,200,2012-12-03 21:53:00
4:53 PM,66.0,50.0,56,30.15,10.0,South,9.2,-,N/A,,Mostly Cloudy,180,2012-12-03 22:53:00
5:53 PM,63.0,50.0,63,30.15,10.0,South,9.2,-,N/A,,Mostly Cloudy,170,2012-12-03 23:53:00
6:53 PM,62.1,48.9,62,30.16,10.0,South,8.1,-,N/A,,Scattered Clouds,170,2012-12-04 00:53:00
7:53 PM,60.1,48.9,67,30.15,10.0,SSE,6.9,-,N/A,,Mostly Cloudy,160,2012-12-04 01:53:00
8:53 PM,61.0,48.9,64,30.14,10.0,South,10.4,-,N/A,,Mostly Cloudy,170,2012-12-04 02:53:00
9:53 PM,61.0,48.9,64,30.15,10.0,South,8.1,-,N/A,,Mostly Cloudy,180,2012-12-04 03:53:00
10:53 PM,62.1,50.0,65,30.16,10.0,South,10.4,-,N/A,,Overcast,190,2012-12-04 04:53:00
11:53 PM,62.1,50.0,65,30.15,10.0,South,6.9,-,N/A,,Overcast,180,2012-12-04 05:53:00